Time,TemperatureF,DewpointF,PressureIn,WindDirection,WindDirectionDegrees,WindSpeedMPH,WindSpeedGustMPH,Humidity,HourlyPrecipIn,Conditions,Clouds,dailyrainin,SoftwareType,DateUTC
2013-02-01 00:03:00,42.9,40.7,30.34,NE,45,0.0,0.0,92,0.00,,OVC002,0.00,VWS V14.01,2013-02-01 08:03:00,
2013-02-01 00:08:00,42.9,40.7,30.34,NE,45,0.0,0.0,92,0.00,,OVC002,0.00,VWS V14.01,2013-02-01 08:08:00,
2013-02-01 00:13:00,42.9,40.7,30.34,NE,45,0.0,0.0,92,0.00,,OVC002,0.00,VWS V14.01,2013-02-01 08:13:00,
2013-02-01 00:18:00,42.9,40.7,30.34,NE,45,0.0,0.0,92,0.00,,OVC002,0.00,VWS V14.01,2013-02-01 08:18:00,
2013-02-01 00:23:00,42.9,40.7,30.34,NE,45,0.0,0.0,92,0.00,,OVC002,0.00,VWS V14.01,2013-02-01 08:23:00,
2013-02-01 00:28:00,42.9,40.7,30.34,NE,45,0.0,0.0,92,0.00,,OVC002,0.00,VWS V14.01,2013-02-01 08:28:00,
2013-02-01 00:33:00,42.9,40.7,30.34,NE,45,0.0,0.0,92,0.00,,OVC002,0.00,VWS V14.01,2013-02-01 08:33:00,
2013-02-01 00:38:00,42.9,40.7,30.34,NE,45,0.0,0.0,92,0.00,,OVC002,0.00,VWS V14.01,2013-02-01 08:38:00,
2013-02-01 00:43:00,42.9,40.7,30.34,NE,45,0.0,0.0,92,0.00,,OVC002,0.00,VWS V14.01,2013-02-01 08:43:00,
2013-02-01 00:48:00,42.9,40.7,30.34,NE,45,0.0,0.0,92,0.00,,OVC002,0.00,VWS V14.01,2013-02-01 08:48:00,
2013-02-01 00:53:00,42.9,40.7,30.35,NE,45,0.0,0.0,92,0.00,,OVC002,0.00,VWS V14.01,2013-02-01 08:53:00,
2013-02-01 00:59:00,42.9,40.7,30.35,NE,45,0.0,0.0,92,0.00,,OVC002,0.00,VWS V14.01,2013-02-01 08:59:00,
2013-02-01 01:04:00,42.9,40.7,30.35,NE,45,0.0,0.0,92,0.00,,OVC002,0.00,VWS V14.01,2013-02-01 09:04:00,
2013-02-01 01:09:00,42.9,40.7,30.35,NE,45,0.0,0.0,92,0.00,,OVC002,0.00,VWS V14.01,2013-02-01 09:09:00,
2013-02-01 01:14:00,42.9,40.7,30.36,NE,45,0.0,0.0,92,0.00,,OVC002,0.00,VWS V14.01,2013-02-01 09:14:00,
2013-02-01 01:19:00,43.1,40.9,30.36,NE,45,0.0,0.0,92,0.00,,OVC002,0.00,VWS V14.01,2013-02-01 09:19:00,
2013-02-01 01:24:00,42.9,40.7,30.35,NE,45,0.0,0.0,92,0.00,,OVC002,0.00,VWS V14.01,2013-02-01 09:24:00,
2013-02-01 01:29:00,42.9,40.7,30.36,NE,45,0.0,0.0,92,0.00,,OVC002,0.00,VWS V14.01,2013-02-01 09:29:00,
2013-02-01 01:34:00,42.9,40.7,30.36,NE,45,0.0,0.0,92,0.00,,OVC002,0.00,VWS V14.01,2013-02-01 09:34:00,
2013-02-01 01:39:00,42.9,40.7,30.36,NE,45,0.0,0.0,92,0.00,,OVC002,0.00,VWS V14.01,2013-02-01 09:39:00,
2013-02-01 01:44:00,42.9,40.7,30.36,NE,45,0.0,0.0,92,0.00,,OVC002,0.00,VWS V14.01,2013-02-01 09:44:00,
2013-02-01 01:49:00,42.9,40.7,30.37,NE,45,0.0,0.0,92,0.00,,OVC002,0.00,VWS V14.01,2013-02-01 09:49:00,
2013-02-01 01:54:00,42.9,40.7,30.36,NE,45,0.0,0.0,92,0.00,,OVC002,0.00,VWS V14.01,2013-02-01 09:54:00,
2013-02-01 01:59:00,42.9,40.7,30.37,NE,45,0.0,0.0,92,0.00,,OVC002,0.00,VWS V14.01,2013-02-01 09:59:00,
2013-02-01 02:04:00,42.9,40.7,30.37,NE,45,0.0,0.0,92,0.00,,OVC024,0.00,VWS V14.01,2013-02-01 10:04:00,
2013-02-01 02:09:00,42.9,40.7,30.37,NE,45,0.0,0.0,92,0.00,,OVC024,0.00,VWS V14.01,2013-02-01 10:09:00,
2013-02-01 02:14:00,42.9,40.7,30.37,NE,45,0.0,0.0,92,0.00,,OVC024,0.00,VWS V14.01,2013-02-01 10:14:00,
2013-02-01 02:19:00,42.9,40.7,30.37,NE,45,0.0,0.0,92,0.00,,OVC024,0.00,VWS V14.01,2013-02-01 10:19:00,
2013-02-01 02:24:00,42.8,40.6,30.37,NE,45,0.0,0.0,92,0.00,,OVC024,0.00,VWS V14.01,2013-02-01 10:24:00,
2013-02-01 02:29:00,42.8,40.6,30.38,NE,45,0.0,0.0,92,0.00,,OVC024,0.00,VWS V14.01,2013-02-01 10:29:00,
2013-02-01 02:34:00,42.6,40.4,30.38,NE,45,0.0,0.0,92,0.00,,OVC024,0.00,VWS V14.01,2013-02-01 10:34:00,
2013-02-01 02:39:00,42.8,40.6,30.37,NE,45,0.0,0.0,92,0.00,,OVC024,0.00,VWS V14.01,2013-02-01 10:39:00,
2013-02-01 02:45:00,42.8,40.6,30.37,NE,45,0.0,0.0,92,0.00,,OVC024,0.00,VWS V14.01,2013-02-01 10:45:00,
2013-02-01 02:50:00,42.6,40.4,30.37,NE,45,0.0,0.0,92,0.00,,OVC024,0.00,VWS V14.01,2013-02-01 10:50:00,
2013-02-01 02:55:00,42.6,40.4,30.37,NE,45,0.0,0.0,92,0.00,,OVC024,0.00,VWS V14.01,2013-02-01 10:55:00,
2013-02-01 03:00:00,42.6,40.4,30.38,NE,45,0.0,0.0,92,0.00,,OVC024,0.00,VWS V14.01,2013-02-01 11:00:00,
2013-02-01 03:05:00,42.6,40.4,30.38,NE,45,0.0,0.0,92,0.00,,OVC024,0.00,VWS V14.01,2013-02-01 11:05:00,
2013-02-01 03:10:00,42.6,40.4,30.38,NE,45,0.0,0.0,92,0.00,,OVC024,0.00,VWS V14.01,2013-02-01 11:10:00,
2013-02-01 03:15:00,42.6,40.4,30.38,NE,45,0.0,0.0,92,0.00,,OVC024,0.00,VWS V14.01,2013-02-01 11:15:00,
2013-02-01 03:20:00,42.6,40.4,30.38,NE,45,0.0,0.0,92,0.00,,OVC024,0.00,VWS V14.01,2013-02-01 11:20:00,
2013-02-01 03:25:00,42.6,40.4,30.38,NE,45,0.0,0.0,92,0.00,,OVC024,0.00,VWS V14.01,2013-02-01 11:25:00,
2013-02-01 03:30:00,42.6,40.4,30.37,NE,45,0.0,0.0,92,0.00,,OVC024,0.00,VWS V14.01,2013-02-01 11:30:00,
2013-02-01 03:35:00,42.6,40.4,30.37,NE,45,0.0,0.0,92,0.00,,OVC024,0.00,VWS V14.01,2013-02-01 11:35:00,
2013-02-01 03:40:00,42.6,40.4,30.38,NE,45,0.0,0.0,92,0.00,,OVC024,0.00,VWS V14.01,2013-02-01 11:40:00,
2013-02-01 03:45:00,42.6,40.4,30.38,NE,45,0.0,0.0,92,0.00,,OVC024,0.00,VWS V14.01,2013-02-01 11:45:00,
2013-02-01 03:50:00,42.6,40.4,30.38,NE,45,0.0,0.0,92,0.00,,OVC024,0.00,VWS V14.01,2013-02-01 11:50:00,
2013-02-01 03:55:00,42.6,40.4,30.38,NE,45,0.0,0.0,92,0.00,,OVC024,0.00,VWS V14.01,2013-02-01 11:55:00,
2013-02-01 04:00:00,42.6,40.4,30.38,NE,45,0.0,0.0,92,0.00,,OVC004,0.00,VWS V14.01,2013-02-01 12:00:00,
2013-02-01 04:05:00,42.6,40.4,30.38,NE,45,0.0,0.0,92,0.00,,OVC004,0.00,VWS V14.01,2013-02-01 12:05:00,
2013-02-01 04:10:00,42.6,40.4,30.38,NE,45,0.0,0.0,92,0.00,,OVC004,0.00,VWS V14.01,2013-02-01 12:10:00,
2013-02-01 04:15:00,42.6,40.4,30.39,NE,45,0.0,0.0,92,0.00,,OVC004,0.00,VWS V14.01,2013-02-01 12:15:00,
2013-02-01 04:20:00,42.6,40.4,30.39,NE,45,0.0,0.0,92,0.00,,OVC004,0.00,VWS V14.01,2013-02-01 12:20:00,
2013-02-01 04:25:00,42.6,40.4,30.39,NE,45,0.0,0.0,92,0.00,,OVC004,0.00,VWS V14.01,2013-02-01 12:25:00,
2013-02-01 04:30:00,42.6,40.4,30.39,NE,45,0.0,0.0,92,0.00,,OVC004,0.00,VWS V14.01,2013-02-01 12:30:00,
2013-02-01 04:35:00,42.6,40.4,30.39,NE,45,0.0,0.0,92,0.00,,OVC004,0.00,VWS V14.01,2013-02-01 12:35:00,
2013-02-01 04:40:00,42.6,40.4,30.39,NE,45,0.0,0.0,92,0.00,,OVC004,0.00,VWS V14.01,2013-02-01 12:40:00,
2013-02-01 04:45:00,42.6,40.4,30.39,NE,45,0.0,0.0,92,0.00,,OVC004,0.00,VWS V14.01,2013-02-01 12:45:00,
2013-02-01 04:50:00,42.6,40.4,30.38,NE,45,0.0,0.0,92,0.00,,OVC004,0.00,VWS V14.01,2013-02-01 12:50:00,
2013-02-01 04:56:00,42.6,40.4,30.38,NE,45,0.0,0.0,92,0.00,,OVC004,0.00,VWS V14.01,2013-02-01 12:56:00,
2013-02-01 05:01:00,42.6,40.4,30.38,NE,45,0.0,0.0,92,0.00,,OVC004,0.00,VWS V14.01,2013-02-01 13:01:00,
2013-02-01 05:06:00,42.6,40.4,30.39,NE,45,0.0,0.0,92,0.00,,OVC004,0.00,VWS V14.01,2013-02-01 13:06:00,
2013-02-01 05:11:00,42.6,40.4,30.39,NE,45,0.0,0.0,92,0.00,,OVC004,0.00,VWS V14.01,2013-02-01 13:11:00,
2013-02-01 05:16:00,42.6,40.4,30.39,NE,45,0.0,0.0,92,0.00,,OVC004,0.00,VWS V14.01,2013-02-01 13:16:00,
2013-02-01 05:21:00,42.6,40.4,30.39,NE,45,0.0,0.0,92,0.00,,OVC004,0.00,VWS V14.01,2013-02-01 13:21:00,
2013-02-01 05:26:00,42.6,40.4,30.39,NE,45,0.0,0.0,92,0.00,,OVC004,0.00,VWS V14.01,2013-02-01 13:26:00,
2013-02-01 05:31:00,42.6,40.4,30.39,NE,45,0.0,0.0,92,0.00,,OVC004,0.00,VWS V14.01,2013-02-01 13:31:00,
2013-02-01 05:36:00,42.6,40.4,30.38,NE,45,0.0,0.0,92,0.00,,OVC004,0.00,VWS V14.01,2013-02-01 13:36:00,
2013-02-01 05:41:00,42.6,40.4,30.39,NE,45,0.0,0.0,92,0.00,,OVC004,0.00,VWS V14.01,2013-02-01 13:41:00,
2013-02-01 05:46:00,42.6,40.4,30.39,NE,45,0.0,0.0,92,0.00,,OVC004,0.00,VWS V14.01,2013-02-01 13:46:00,
2013-02-01 05:51:00,42.6,40.4,30.39,NE,45,0.0,0.0,92,0.00,,OVC004,0.00,VWS V14.01,2013-02-01 13:51:00,
2013-02-01 05:56:00,42.6,40.4,30.39,NE,45,0.0,0.0,92,0.00,,OVC004,0.00,VWS V14.01,2013-02-01 13:56:00,
2013-02-01 06:01:00,42.6,40.4,30.39,NE,45,0.0,0.0,92,0.00,,OVC003,0.00,VWS V14.01,2013-02-01 14:01:00,
2013-02-01 06:06:00,42.6,40.4,30.39,NE,45,0.0,0.0,92,0.00,,OVC003,0.00,VWS V14.01,2013-02-01 14:06:00,
2013-02-01 06:11:00,42.6,40.7,30.39,NE,45,0.0,0.0,93,0.00,,OVC003,0.00,VWS V14.01,2013-02-01 14:11:00,
2013-02-01 06:16:00,42.6,40.4,30.39,NE,45,0.0,0.0,92,0.00,,OVC003,0.00,VWS V14.01,2013-02-01 14:16:00,
2013-02-01 06:22:00,42.6,40.4,30.39,NE,45,0.0,0.0,92,0.00,,OVC003,0.00,VWS V14.01,2013-02-01 14:22:00,
2013-02-01 06:27:00,42.6,40.7,30.39,NE,45,0.0,0.0,93,0.00,,OVC003,0.00,VWS V14.01,2013-02-01 14:27:00,
2013-02-01 06:32:00,42.6,40.7,30.39,NE,45,0.0,0.0,93,0.00,,OVC003,0.00,VWS V14.01,2013-02-01 14:32:00,
2013-02-01 06:37:00,42.6,40.7,30.39,NE,45,0.0,0.0,93,0.00,,OVC003,0.00,VWS V14.01,2013-02-01 14:37:00,
2013-02-01 06:42:00,42.6,40.7,30.39,NE,45,0.0,0.0,93,0.00,,OVC003,0.00,VWS V14.01,2013-02-01 14:42:00,
2013-02-01 06:47:00,42.6,40.7,30.39,NE,45,0.0,0.0,93,0.00,,OVC003,0.00,VWS V14.01,2013-02-01 14:47:00,
2013-02-01 06:52:00,42.6,40.7,30.39,NE,45,0.0,0.0,93,0.00,,OVC003,0.00,VWS V14.01,2013-02-01 14:52:00,
2013-02-01 06:57:00,42.6,40.7,30.39,NE,45,0.0,0.0,93,0.00,,OVC003,0.00,VWS V14.01,2013-02-01 14:57:00,
2013-02-01 07:02:00,42.6,40.7,30.39,NE,45,0.0,0.0,93,0.00,,OVC003,0.00,VWS V14.01,2013-02-01 15:02:00,
2013-02-01 07:07:00,42.6,40.7,30.39,NE,45,0.0,0.0,93,0.00,,OVC003,0.00,VWS V14.01,2013-02-01 15:07:00,
2013-02-01 07:12:00,42.6,40.7,30.39,NE,45,0.0,0.0,93,0.00,,OVC003,0.00,VWS V14.01,2013-02-01 15:12:00,
2013-02-01 07:17:00,42.4,40.5,30.39,NE,45,0.0,0.0,93,0.00,,OVC003,0.00,VWS V14.01,2013-02-01 15:17:00,
2013-02-01 07:22:00,42.4,40.5,30.39,NE,45,0.0,0.0,93,0.00,,OVC003,0.00,VWS V14.01,2013-02-01 15:22:00,
2013-02-01 07:27:00,42.4,40.5,30.39,NE,45,0.0,0.0,93,0.00,,OVC003,0.00,VWS V14.01,2013-02-01 15:27:00,
2013-02-01 07:32:00,42.4,40.5,30.39,NE,45,0.0,0.0,93,0.00,,OVC003,0.00,VWS V14.01,2013-02-01 15:32:00,
2013-02-01 07:37:00,42.4,40.5,30.39,NE,45,0.0,0.0,93,0.00,,OVC003,0.00,VWS V14.01,2013-02-01 15:37:00,
2013-02-01 07:42:00,42.4,40.5,30.39,NE,45,0.0,0.0,93,0.00,,OVC003,0.00,VWS V14.01,2013-02-01 15:42:00,
2013-02-01 07:47:00,42.6,40.7,30.39,NE,45,0.0,0.0,93,0.00,,OVC003,0.00,VWS V14.01,2013-02-01 15:47:00,
2013-02-01 07:52:00,42.6,40.7,30.39,NE,45,0.0,0.0,93,0.00,,OVC003,0.00,VWS V14.01,2013-02-01 15:52:00,
2013-02-01 07:57:00,42.6,40.7,30.38,NE,45,0.0,0.0,93,0.00,,OVC003,0.00,VWS V14.01,2013-02-01 15:57:00,
2013-02-01 08:02:00,42.4,40.5,30.38,NE,45,0.0,0.0,93,0.00,,BKN009,0.00,VWS V14.01,2013-02-01 16:02:00,
2013-02-01 08:07:00,42.6,40.7,30.39,NE,45,0.0,0.0,93,0.00,,BKN009,0.00,VWS V14.01,2013-02-01 16:07:00,
2013-02-01 08:12:00,42.4,40.5,30.39,NE,45,0.0,0.0,93,0.00,,BKN009,0.00,VWS V14.01,2013-02-01 16:12:00,
2013-02-01 08:18:00,42.4,40.5,30.39,NE,45,0.0,0.0,93,0.00,,BKN009,0.00,VWS V14.01,2013-02-01 16:18:00,
2013-02-01 08:23:00,42.4,40.5,30.39,NE,45,0.0,0.0,93,0.00,,BKN009,0.00,VWS V14.01,2013-02-01 16:23:00,
2013-02-01 08:28:00,42.4,40.5,30.39,NE,45,0.0,0.0,93,0.00,,BKN009,0.00,VWS V14.01,2013-02-01 16:28:00,
2013-02-01 08:33:00,42.2,40.3,30.39,NE,45,0.0,0.0,93,0.00,,BKN009,0.00,VWS V14.01,2013-02-01 16:33:00,
2013-02-01 08:38:00,42.4,40.5,30.39,NE,45,0.0,0.0,93,0.00,,BKN009,0.00,VWS V14.01,2013-02-01 16:38:00,
2013-02-01 08:43:00,42.4,40.5,30.39,NE,45,0.0,0.0,93,0.00,,BKN009,0.00,VWS V14.01,2013-02-01 16:43:00,
2013-02-01 08:48:00,42.4,40.5,30.39,NE,45,0.0,0.0,93,0.00,,BKN009,0.00,VWS V14.01,2013-02-01 16:48:00,
2013-02-01 08:53:00,42.6,40.7,30.39,NE,45,0.0,0.0,93,0.00,,BKN009,0.00,VWS V14.01,2013-02-01 16:53:00,
2013-02-01 08:58:00,42.6,40.7,30.39,NE,45,0.0,0.0,93,0.00,,BKN009,0.00,VWS V14.01,2013-02-01 16:58:00,
2013-02-01 09:03:00,42.6,40.7,30.39,NE,45,0.0,0.0,93,0.00,,BKN009,0.00,VWS V14.01,2013-02-01 17:03:00,
2013-02-01 09:08:00,42.6,40.7,30.39,NE,45,0.0,0.0,93,0.00,,BKN009,0.00,VWS V14.01,2013-02-01 17:08:00,
2013-02-01 09:13:00,42.6,40.7,30.39,NE,45,0.0,0.0,93,0.00,,BKN009,0.00,VWS V14.01,2013-02-01 17:13:00,
2013-02-01 09:18:00,42.9,41.0,30.39,NE,45,0.0,0.0,93,0.00,,BKN009,0.00,VWS V14.01,2013-02-01 17:18:00,
2013-02-01 09:23:00,42.9,41.0,30.39,NE,45,0.0,0.0,93,0.00,,BKN009,0.00,VWS V14.01,2013-02-01 17:23:00,
2013-02-01 09:28:00,42.9,41.0,30.40,NE,45,0.0,0.0,93,0.00,,BKN009,0.00,VWS V14.01,2013-02-01 17:28:00,
2013-02-01 09:33:00,42.9,41.0,30.40,NE,45,0.0,0.0,93,0.00,,BKN009,0.00,VWS V14.01,2013-02-01 17:33:00,
2013-02-01 09:38:00,42.9,41.0,30.40,NE,45,0.0,0.0,93,0.00,,BKN009,0.00,VWS V14.01,2013-02-01 17:38:00,
2013-02-01 09:43:00,43.1,41.2,30.40,NE,45,0.0,0.0,93,0.00,,BKN009,0.00,VWS V14.01,2013-02-01 17:43:00,
2013-02-01 09:48:00,43.3,41.4,30.40,NE,45,0.0,0.0,93,0.00,,BKN009,0.00,VWS V14.01,2013-02-01 17:48:00,
2013-02-01 09:53:00,43.3,41.4,30.40,NE,45,0.0,0.0,93,0.00,,BKN009,0.00,VWS V14.01,2013-02-01 17:53:00,
2013-02-01 09:58:00,43.3,41.4,30.41,NE,45,0.0,0.0,93,0.00,,BKN009,0.00,VWS V14.01,2013-02-01 17:58:00,
2013-02-01 10:03:00,43.5,41.6,30.41,NE,45,0.0,0.0,93,0.00,,OVC015,0.00,VWS V14.01,2013-02-01 18:03:00,
2013-02-01 10:08:00,43.7,41.8,30.41,NE,45,0.0,0.0,93,0.00,,OVC015,0.00,VWS V14.01,2013-02-01 18:08:00,
2013-02-01 10:13:00,43.8,41.9,30.41,NE,45,0.0,0.0,93,0.00,,OVC015,0.00,VWS V14.01,2013-02-01 18:13:00,
2013-02-01 10:18:00,43.8,41.9,30.41,NE,45,0.0,0.0,93,0.00,,OVC015,0.00,VWS V14.01,2013-02-01 18:18:00,
2013-02-01 10:23:00,43.8,41.9,30.41,NE,45,0.0,0.0,93,0.00,,OVC015,0.00,VWS V14.01,2013-02-01 18:23:00,
2013-02-01 10:28:00,44.2,42.3,30.41,NE,45,0.0,0.0,93,0.00,,OVC015,0.00,VWS V14.01,2013-02-01 18:28:00,
2013-02-01 10:34:00,44.2,42.3,30.41,NE,45,0.0,0.0,93,0.00,,OVC015,0.00,VWS V14.01,2013-02-01 18:34:00,
2013-02-01 10:39:00,44.4,42.5,30.42,NE,45,0.0,0.0,93,0.00,,OVC015,0.00,VWS V14.01,2013-02-01 18:39:00,
2013-02-01 10:44:00,44.2,42.3,30.42,NE,45,0.0,0.0,93,0.00,,OVC015,0.00,VWS V14.01,2013-02-01 18:44:00,
2013-02-01 10:49:00,44.4,42.5,30.42,NE,45,0.0,0.0,93,0.00,,OVC015,0.00,VWS V14.01,2013-02-01 18:49:00,
2013-02-01 10:54:00,44.6,42.7,30.42,NE,45,0.0,0.0,93,0.00,,OVC015,0.00,VWS V14.01,2013-02-01 18:54:00,
2013-02-01 10:59:00,44.6,42.7,30.42,NE,45,0.0,0.0,93,0.00,,OVC015,0.00,VWS V14.01,2013-02-01 18:59:00,
2013-02-01 11:04:00,44.7,42.8,30.42,NE,45,0.0,0.0,93,0.00,,OVC015,0.00,VWS V14.01,2013-02-01 19:04:00,
2013-02-01 11:09:00,44.9,43.0,30.42,NE,45,0.0,0.0,93,0.00,,OVC015,0.00,VWS V14.01,2013-02-01 19:09:00,
2013-02-01 11:14:00,45.1,43.2,30.42,NE,45,0.0,0.0,93,0.00,,OVC015,0.00,VWS V14.01,2013-02-01 19:14:00,
2013-02-01 11:19:00,45.1,42.9,30.42,NE,45,0.0,0.0,92,0.00,,OVC015,0.00,VWS V14.01,2013-02-01 19:19:00,
2013-02-01 11:24:00,45.3,43.1,30.42,NE,45,0.0,0.0,92,0.00,,OVC015,0.00,VWS V14.01,2013-02-01 19:24:00,
2013-02-01 11:29:00,45.6,43.7,30.43,NE,45,0.0,0.0,93,0.00,,OVC015,0.00,VWS V14.01,2013-02-01 19:29:00,
2013-02-01 11:34:00,45.6,43.7,30.43,NE,45,0.0,0.0,93,0.00,,OVC015,0.00,VWS V14.01,2013-02-01 19:34:00,
2013-02-01 11:39:00,45.5,43.3,30.43,NE,45,0.0,0.0,92,0.00,,OVC015,0.00,VWS V14.01,2013-02-01 19:39:00,
2013-02-01 11:44:00,45.5,43.3,30.42,NE,45,0.0,0.0,92,0.00,,OVC015,0.00,VWS V14.01,2013-02-01 19:44:00,
2013-02-01 11:49:00,45.5,43.3,30.42,NE,45,0.0,0.0,92,0.00,,OVC015,0.00,VWS V14.01,2013-02-01 19:49:00,
2013-02-01 11:54:00,45.5,43.3,30.42,NE,45,0.0,0.0,92,0.00,,OVC015,0.00,VWS V14.01,2013-02-01 19:54:00,
2013-02-01 11:59:00,45.5,43.3,30.42,NE,45,0.0,0.0,92,0.00,,OVC015,0.00,VWS V14.01,2013-02-01 19:59:00,
2013-02-01 12:04:00,45.5,43.3,30.42,NE,45,0.0,0.0,92,0.00,,OVC019,0.00,VWS V14.01,2013-02-01 20:04:00,
2013-02-01 12:09:00,45.6,43.7,30.42,NE,45,0.0,0.0,93,0.00,,OVC019,0.00,VWS V14.01,2013-02-01 20:09:00,
2013-02-01 12:14:00,45.6,43.4,30.42,NE,45,0.0,0.0,92,0.00,,OVC019,0.00,VWS V14.01,2013-02-01 20:14:00,
2013-02-01 12:19:00,45.6,43.4,30.42,NE,45,0.0,0.0,92,0.00,,OVC019,0.00,VWS V14.01,2013-02-01 20:19:00,
2013-02-01 12:24:00,45.6,43.4,30.41,North,0,0.0,0.0,92,0.00,,OVC019,0.00,VWS V14.01,2013-02-01 20:24:00,
2013-02-01 12:29:00,46.0,43.8,30.41,NNE,22,0.0,0.0,92,0.00,,OVC019,0.00,VWS V14.01,2013-02-01 20:29:00,
2013-02-01 12:35:00,46.0,43.8,30.42,NNE,22,0.0,0.0,92,0.00,,OVC019,0.00,VWS V14.01,2013-02-01 20:35:00,
2013-02-01 12:40:00,46.0,43.8,30.41,NNE,22,0.0,0.0,92,0.00,,OVC019,0.00,VWS V14.01,2013-02-01 20:40:00,
2013-02-01 12:45:00,46.0,43.8,30.41,NNE,22,0.0,0.0,92,0.00,,OVC019,0.00,VWS V14.01,2013-02-01 20:45:00,
2013-02-01 12:50:00,46.2,43.7,30.41,NNE,22,0.0,0.0,91,0.00,,OVC019,0.00,VWS V14.01,2013-02-01 20:50:00,
2013-02-01 12:55:00,46.2,43.7,30.41,NNE,22,0.0,0.0,91,0.00,,OVC019,0.00,VWS V14.01,2013-02-01 20:55:00,
2013-02-01 13:00:00,46.2,43.7,30.41,NNE,22,0.0,0.0,91,0.00,,OVC019,0.00,VWS V14.01,2013-02-01 21:00:00,
2013-02-01 13:05:00,46.2,43.7,30.41,NNE,22,0.0,0.0,91,0.00,,OVC019,0.00,VWS V14.01,2013-02-01 21:05:00,
2013-02-01 13:10:00,46.5,44.0,30.41,NE,45,0.0,0.0,91,0.00,,OVC019,0.00,VWS V14.01,2013-02-01 21:10:00,
2013-02-01 13:15:00,46.9,44.4,30.40,NE,45,0.0,0.0,91,0.00,,OVC019,0.00,VWS V14.01,2013-02-01 21:15:00,
2013-02-01 13:20:00,46.9,44.1,30.40,NE,45,0.0,0.0,90,0.00,,OVC019,0.00,VWS V14.01,2013-02-01 21:20:00,
2013-02-01 13:25:00,47.1,44.3,30.40,NE,45,0.0,0.0,90,0.00,,OVC019,0.00,VWS V14.01,2013-02-01 21:25:00,
2013-02-01 13:30:00,47.1,44.3,30.40,NE,45,0.0,0.0,90,0.00,,OVC019,0.00,VWS V14.01,2013-02-01 21:30:00,
2013-02-01 13:35:00,47.1,44.3,30.41,NE,45,0.0,0.0,90,0.00,,OVC019,0.00,VWS V14.01,2013-02-01 21:35:00,
2013-02-01 13:40:00,46.9,44.1,30.40,NE,45,0.0,0.0,90,0.00,,OVC019,0.00,VWS V14.01,2013-02-01 21:40:00,
2013-02-01 13:45:00,46.9,44.1,30.41,NE,45,0.0,0.0,90,0.00,,OVC019,0.00,VWS V14.01,2013-02-01 21:45:00,
2013-02-01 13:50:00,47.1,44.0,30.40,NE,45,0.0,0.0,89,0.00,,OVC019,0.00,VWS V14.01,2013-02-01 21:50:00,
2013-02-01 13:55:00,47.1,44.0,30.40,NE,45,0.0,0.0,89,0.00,,OVC019,0.00,VWS V14.01,2013-02-01 21:55:00,
2013-02-01 14:00:00,47.1,44.0,30.40,NE,45,0.0,0.0,89,0.00,,OVC013,0.00,VWS V14.01,2013-02-01 22:00:00,
2013-02-01 14:05:00,47.1,44.0,30.40,NE,45,0.0,0.0,89,0.00,,OVC013,0.00,VWS V14.01,2013-02-01 22:05:00,
2013-02-01 14:10:00,47.1,44.0,30.40,NE,45,0.0,0.0,89,0.00,,OVC013,0.00,VWS V14.01,2013-02-01 22:10:00,
2013-02-01 14:15:00,47.1,44.0,30.40,NE,45,0.0,0.0,89,0.00,,OVC013,0.00,VWS V14.01,2013-02-01 22:15:00,
2013-02-01 14:20:00,47.1,44.0,30.40,NE,45,0.0,0.0,89,0.00,,OVC013,0.00,VWS V14.01,2013-02-01 22:20:00,
2013-02-01 14:25:00,47.1,44.0,30.40,NE,45,0.0,0.0,89,0.00,,OVC013,0.00,VWS V14.01,2013-02-01 22:25:00,
2013-02-01 14:30:00,46.9,43.8,30.40,NE,45,0.0,0.0,89,0.00,,OVC013,0.00,VWS V14.01,2013-02-01 22:30:00,
2013-02-01 14:35:00,46.9,43.8,30.40,NE,45,0.0,0.0,89,0.00,,OVC013,0.00,VWS V14.01,2013-02-01 22:35:00,
2013-02-01 14:40:00,47.1,44.0,30.40,NE,45,0.0,0.0,89,0.00,,OVC013,0.00,VWS V14.01,2013-02-01 22:40:00,
2013-02-01 14:45:00,46.9,43.8,30.40,NE,45,0.0,0.0,89,0.00,,OVC013,0.00,VWS V14.01,2013-02-01 22:45:00,
2013-02-01 14:50:00,47.1,44.0,30.40,NE,45,0.0,0.0,89,0.00,,OVC013,0.00,VWS V14.01,2013-02-01 22:50:00,
2013-02-01 14:55:00,47.1,44.0,30.40,NE,45,0.0,0.0,89,0.00,,OVC013,0.00,VWS V14.01,2013-02-01 22:55:00,
2013-02-01 15:00:00,47.1,44.0,30.40,NE,45,0.0,0.0,89,0.00,,OVC013,0.00,VWS V14.01,2013-02-01 23:00:00,
2013-02-01 15:05:00,46.9,43.8,30.40,NE,45,0.0,0.0,89,0.00,,OVC013,0.00,VWS V14.01,2013-02-01 23:05:00,
2013-02-01 15:10:00,46.7,43.6,30.40,NE,45,0.0,0.0,89,0.00,,OVC013,0.00,VWS V14.01,2013-02-01 23:10:00,
2013-02-01 15:15:00,46.5,43.4,30.40,NE,45,0.0,0.0,89,0.00,,OVC013,0.00,VWS V14.01,2013-02-01 23:15:00,
2013-02-01 15:20:00,46.5,43.4,30.40,NE,45,0.0,0.0,89,0.00,,OVC013,0.00,VWS V14.01,2013-02-01 23:20:00,
2013-02-01 15:25:00,46.7,43.6,30.40,North,0,0.0,0.0,89,0.00,,OVC013,0.00,VWS V14.01,2013-02-01 23:25:00,
2013-02-01 15:30:00,46.5,43.4,30.40,North,0,0.0,0.0,89,0.00,,OVC013,0.00,VWS V14.01,2013-02-01 23:30:00,
2013-02-01 15:35:00,46.7,43.6,30.40,NNE,22,0.0,0.0,89,0.00,,OVC013,0.00,VWS V14.01,2013-02-01 23:35:00,
2013-02-01 15:40:00,46.7,43.3,30.39,NNE,22,0.0,0.0,88,0.00,,OVC013,0.00,VWS V14.01,2013-02-01 23:40:00,
2013-02-01 15:45:00,46.5,43.1,30.39,NNE,22,0.0,0.0,88,0.00,,OVC013,0.00,VWS V14.01,2013-02-01 23:45:00,
2013-02-01 15:50:00,46.2,42.8,30.39,NNE,22,0.0,0.0,88,0.00,,OVC013,0.00,VWS V14.01,2013-02-01 23:50:00,
2013-02-01 15:55:00,46.0,42.7,30.39,NNE,22,0.0,0.0,88,0.00,,OVC013,0.00,VWS V14.01,2013-02-01 23:55:00,
2013-02-01 16:00:00,45.6,42.3,30.39,NNE,22,0.0,0.0,88,0.00,,FEW017,0.00,VWS V14.01,2013-02-02 00:00:00,
2013-02-01 16:05:00,45.5,42.2,30.39,NNE,22,0.0,0.0,88,0.00,,FEW017,0.00,VWS V14.01,2013-02-02 00:05:00,
2013-02-01 16:10:00,45.1,41.8,30.38,NNE,22,0.0,0.0,88,0.00,,FEW017,0.00,VWS V14.01,2013-02-02 00:10:00,
2013-02-01 16:15:00,45.1,42.1,30.39,NNE,22,0.0,0.0,89,0.00,,FEW017,0.00,VWS V14.01,2013-02-02 00:15:00,
2013-02-01 16:20:00,44.9,41.9,30.39,NNW,338,0.0,0.0,89,0.00,,FEW017,0.00,VWS V14.01,2013-02-02 00:20:00,
2013-02-01 16:25:00,44.9,41.9,30.39,NNW,338,0.0,0.0,89,0.00,,FEW017,0.00,VWS V14.01,2013-02-02 00:25:00,
2013-02-01 16:30:00,44.7,41.7,30.39,NNW,338,0.0,0.0,89,0.00,,FEW017,0.00,VWS V14.01,2013-02-02 00:30:00,
2013-02-01 16:35:00,44.6,41.6,30.39,NNW,338,0.0,0.0,89,0.00,,FEW017,0.00,VWS V14.01,2013-02-02 00:35:00,
2013-02-01 16:40:00,44.4,41.4,30.39,North,0,0.0,0.0,89,0.00,,FEW017,0.00,VWS V14.01,2013-02-02 00:40:00,
2013-02-01 16:45:00,44.2,41.2,30.39,North,0,0.0,0.0,89,0.00,,FEW017,0.00,VWS V14.01,2013-02-02 00:45:00,
2013-02-01 16:50:00,43.8,40.8,30.39,North,0,0.0,0.0,89,0.00,,FEW017,0.00,VWS V14.01,2013-02-02 00:50:00,
2013-02-01 16:55:00,43.7,40.7,30.39,North,0,0.0,0.0,89,0.00,,FEW017,0.00,VWS V14.01,2013-02-02 00:55:00,
2013-02-01 17:00:00,43.5,40.5,30.39,North,0,0.0,0.0,89,0.00,,FEW017,0.00,VWS V14.01,2013-02-02 01:00:00,
2013-02-01 17:05:00,43.3,40.3,30.39,North,0,0.0,0.0,89,0.00,,FEW017,0.00,VWS V14.01,2013-02-02 01:05:00,
2013-02-01 17:10:00,43.1,40.1,30.39,North,0,0.0,0.0,89,0.00,,FEW017,0.00,VWS V14.01,2013-02-02 01:10:00,
2013-02-01 17:15:00,42.9,39.9,30.39,North,0,0.0,0.0,89,0.00,,FEW017,0.00,VWS V14.01,2013-02-02 01:15:00,
2013-02-01 17:20:00,42.6,39.6,30.39,North,0,0.0,0.0,89,0.00,,FEW017,0.00,VWS V14.01,2013-02-02 01:20:00,
2013-02-01 17:25:00,42.6,39.6,30.39,North,0,0.0,0.0,89,0.00,,FEW017,0.00,VWS V14.01,2013-02-02 01:25:00,
2013-02-01 17:30:00,42.4,39.7,30.39,North,0,0.0,0.0,90,0.00,,FEW017,0.00,VWS V14.01,2013-02-02 01:30:00,
2013-02-01 17:35:00,42.0,39.3,30.39,North,0,0.0,0.0,90,0.00,,FEW017,0.00,VWS V14.01,2013-02-02 01:35:00,
2013-02-01 17:40:00,41.9,39.2,30.39,North,0,0.0,0.0,90,0.00,,FEW017,0.00,VWS V14.01,2013-02-02 01:40:00,
2013-02-01 17:45:00,41.7,39.0,30.39,North,0,0.0,0.0,90,0.00,,FEW017,0.00,VWS V14.01,2013-02-02 01:45:00,
2013-02-01 17:50:00,41.5,38.8,30.39,North,0,0.0,0.0,90,0.00,,FEW017,0.00,VWS V14.01,2013-02-02 01:50:00,
2013-02-01 17:55:00,41.3,38.6,30.39,North,0,0.0,0.0,90,0.00,,FEW017,0.00,VWS V14.01,2013-02-02 01:55:00,
2013-02-01 18:00:00,41.3,38.6,30.39,North,0,0.0,0.0,90,0.00,,CLR,0.00,VWS V14.01,2013-02-02 02:00:00,
2013-02-01 18:05:00,41.1,38.4,30.39,North,0,0.0,0.0,90,0.00,,CLR,0.00,VWS V14.01,2013-02-02 02:05:00,
2013-02-01 18:10:00,40.8,38.1,30.39,North,0,0.0,0.0,90,0.00,,CLR,0.00,VWS V14.01,2013-02-02 02:10:00,
2013-02-01 18:15:00,40.8,38.1,30.39,North,0,0.0,0.0,90,0.00,,CLR,0.00,VWS V14.01,2013-02-02 02:15:00,
2013-02-01 18:20:00,40.6,37.9,30.40,North,0,0.0,0.0,90,0.00,,CLR,0.00,VWS V14.01,2013-02-02 02:20:00,
2013-02-01 18:25:00,40.4,37.7,30.39,North,0,0.0,0.0,90,0.00,,CLR,0.00,VWS V14.01,2013-02-02 02:25:00,
2013-02-01 18:30:00,40.2,37.5,30.39,North,0,0.0,0.0,90,0.00,,CLR,0.00,VWS V14.01,2013-02-02 02:30:00,
2013-02-01 18:35:00,40.2,37.5,30.39,North,0,0.0,0.0,90,0.00,,CLR,0.00,VWS V14.01,2013-02-02 02:35:00,
2013-02-01 18:40:00,40.1,37.4,30.39,North,0,0.0,0.0,90,0.00,,CLR,0.00,VWS V14.01,2013-02-02 02:40:00,
2013-02-01 18:45:00,39.9,37.2,30.39,North,0,0.0,0.0,90,0.00,,CLR,0.00,VWS V14.01,2013-02-02 02:45:00,
2013-02-01 18:50:00,39.9,37.2,30.39,North,0,0.0,0.0,90,0.00,,CLR,0.00,VWS V14.01,2013-02-02 02:50:00,
2013-02-01 18:56:00,39.9,37.2,30.40,North,0,0.0,0.0,90,0.00,,CLR,0.00,VWS V14.01,2013-02-02 02:56:00,
2013-02-01 19:01:00,39.7,37.0,30.40,North,0,0.0,0.0,90,0.00,,CLR,0.00,VWS V14.01,2013-02-02 03:01:00,
2013-02-01 19:06:00,39.5,37.1,30.40,North,0,0.0,0.0,91,0.00,,CLR,0.00,VWS V14.01,2013-02-02 03:06:00,
2013-02-01 19:11:00,39.5,37.1,30.40,North,0,0.0,0.0,91,0.00,,CLR,0.00,VWS V14.01,2013-02-02 03:11:00,
2013-02-01 19:16:00,39.3,36.9,30.40,North,0,0.0,0.0,91,0.00,,CLR,0.00,VWS V14.01,2013-02-02 03:16:00,
2013-02-01 19:21:00,39.3,36.9,30.39,North,0,0.0,0.0,91,0.00,,CLR,0.00,VWS V14.01,2013-02-02 03:21:00,
2013-02-01 19:26:00,39.3,36.9,30.40,North,0,0.0,0.0,91,0.00,,CLR,0.00,VWS V14.01,2013-02-02 03:26:00,
2013-02-01 19:31:00,39.3,36.9,30.39,North,0,0.0,0.0,91,0.00,,CLR,0.00,VWS V14.01,2013-02-02 03:31:00,
2013-02-01 19:36:00,39.0,36.6,30.39,North,0,0.0,0.0,91,0.00,,CLR,0.00,VWS V14.01,2013-02-02 03:36:00,
2013-02-01 19:41:00,39.0,36.6,30.39,North,0,0.0,0.0,91,0.00,,CLR,0.00,VWS V14.01,2013-02-02 03:41:00,
2013-02-01 19:46:00,39.0,36.6,30.39,North,0,0.0,0.0,91,0.00,,CLR,0.00,VWS V14.01,2013-02-02 03:46:00,
2013-02-01 19:51:00,39.0,36.6,30.40,North,0,0.0,0.0,91,0.00,,CLR,0.00,VWS V14.01,2013-02-02 03:51:00,
2013-02-01 19:56:00,39.0,36.6,30.40,North,0,0.0,0.0,91,0.00,,CLR,0.00,VWS V14.01,2013-02-02 03:56:00,
2013-02-01 20:01:00,39.0,36.6,30.40,North,0,0.0,0.0,91,0.00,,CLR,0.00,VWS V14.01,2013-02-02 04:01:00,
2013-02-01 20:06:00,38.8,36.4,30.39,North,0,0.0,0.0,91,0.00,,CLR,0.00,VWS V14.01,2013-02-02 04:06:00,
2013-02-01 20:11:00,38.8,36.4,30.40,North,0,0.0,0.0,91,0.00,,CLR,0.00,VWS V14.01,2013-02-02 04:11:00,
2013-02-01 20:17:00,38.8,36.4,30.40,North,0,0.0,0.0,91,0.00,,CLR,0.00,VWS V14.01,2013-02-02 04:17:00,
2013-02-01 20:22:00,38.8,36.4,30.40,North,0,0.0,0.0,91,0.00,,CLR,0.00,VWS V14.01,2013-02-02 04:22:00,
2013-02-01 20:27:00,38.8,36.4,30.40,North,0,0.0,0.0,91,0.00,,CLR,0.00,VWS V14.01,2013-02-02 04:27:00,
2013-02-01 20:32:00,38.6,36.2,30.40,North,0,0.0,0.0,91,0.00,,CLR,0.00,VWS V14.01,2013-02-02 04:32:00,
2013-02-01 20:37:00,38.4,36.0,30.40,North,0,0.0,0.0,91,0.00,,CLR,0.00,VWS V14.01,2013-02-02 04:37:00,
2013-02-01 20:42:00,38.4,36.0,30.40,NNW,338,0.0,0.0,91,0.00,,CLR,0.00,VWS V14.01,2013-02-02 04:42:00,
2013-02-01 20:47:00,38.4,36.0,30.40,NNW,338,0.0,0.0,91,0.00,,CLR,0.00,VWS V14.01,2013-02-02 04:47:00,
2013-02-01 20:52:00,38.4,36.0,30.40,NNW,338,0.0,0.0,91,0.00,,CLR,0.00,VWS V14.01,2013-02-02 04:52:00,
2013-02-01 20:57:00,38.3,35.9,30.40,NNW,338,0.0,0.0,91,0.00,,CLR,0.00,VWS V14.01,2013-02-02 04:57:00,
2013-02-01 21:00:00,38.3,35.9,30.40,NNW,338,0.0,0.0,91,0.00,,CLR,0.00,VWS V14.01,2013-02-02 05:00:00,
2013-02-01 21:01:00,38.3,35.9,30.40,NNW,338,0.0,0.0,91,0.00,,CLR,0.00,VWS V14.01,2013-02-02 05:01:00,
2013-02-01 21:03:00,38.3,35.9,30.40,NNW,338,0.0,0.0,91,0.00,,CLR,0.00,VWS V14.01,2013-02-02 05:03:00,
2013-02-01 21:08:00,38.1,35.7,30.40,NNW,338,0.0,0.0,91,0.00,,CLR,0.00,VWS V14.01,2013-02-02 05:08:00,
2013-02-01 21:13:00,38.1,35.7,30.40,NNW,338,0.0,0.0,91,0.00,,CLR,0.00,VWS V14.01,2013-02-02 05:13:00,
2013-02-01 21:18:00,38.1,35.7,30.40,NNW,338,0.0,0.0,91,0.00,,CLR,0.00,VWS V14.01,2013-02-02 05:18:00,
2013-02-01 21:23:00,37.9,35.5,30.40,NNW,338,0.0,0.0,91,0.00,,CLR,0.00,VWS V14.01,2013-02-02 05:23:00,
2013-02-01 21:28:00,37.9,35.5,30.40,NNW,338,0.0,0.0,91,0.00,,CLR,0.00,VWS V14.01,2013-02-02 05:28:00,
2013-02-01 21:33:00,37.9,35.5,30.40,NNW,338,0.0,0.0,91,0.00,,CLR,0.00,VWS V14.01,2013-02-02 05:33:00,
2013-02-01 21:38:00,37.9,35.5,30.40,NNW,338,0.0,0.0,91,0.00,,CLR,0.00,VWS V14.01,2013-02-02 05:38:00,
2013-02-01 21:43:00,37.9,35.5,30.40,NNW,338,0.0,0.0,91,0.00,,CLR,0.00,VWS V14.01,2013-02-02 05:43:00,
2013-02-01 21:49:00,37.9,35.5,30.40,NNW,338,0.0,0.0,91,0.00,,CLR,0.00,VWS V14.01,2013-02-02 05:49:00,
2013-02-01 21:54:00,37.9,35.5,30.40,NNW,338,0.0,0.0,91,0.00,,CLR,0.00,VWS V14.01,2013-02-02 05:54:00,
2013-02-01 21:59:00,37.9,35.5,30.40,NNW,338,0.0,0.0,91,0.00,,CLR,0.00,VWS V14.01,2013-02-02 05:59:00,
2013-02-01 22:04:00,37.9,35.5,30.40,NNW,338,0.0,0.0,91,0.00,,CLR,0.00,VWS V14.01,2013-02-02 06:04:00,
2013-02-01 22:09:00,37.7,35.3,30.40,NNW,338,0.0,0.0,91,0.00,,CLR,0.00,VWS V14.01,2013-02-02 06:09:00,
2013-02-01 22:14:00,37.7,35.3,30.39,NNW,338,0.0,0.0,91,0.00,,CLR,0.00,VWS V14.01,2013-02-02 06:14:00,
2013-02-01 22:19:00,37.7,35.3,30.40,NNW,338,0.0,0.0,91,0.00,,CLR,0.00,VWS V14.01,2013-02-02 06:19:00,
2013-02-01 22:24:00,37.7,35.3,30.40,NNW,338,0.0,0.0,91,0.00,,CLR,0.00,VWS V14.01,2013-02-02 06:24:00,
2013-02-01 22:29:00,37.7,35.3,30.40,NNW,338,0.0,0.0,91,0.00,,CLR,0.00,VWS V14.01,2013-02-02 06:29:00,
2013-02-01 22:34:00,37.5,35.1,30.39,NNW,338,0.0,0.0,91,0.00,,CLR,0.00,VWS V14.01,2013-02-02 06:34:00,
2013-02-01 22:39:00,37.5,35.1,30.39,NNW,338,0.0,0.0,91,0.00,,CLR,0.00,VWS V14.01,2013-02-02 06:39:00,
2013-02-01 22:44:00,37.4,35.3,30.39,NNW,338,0.0,0.0,92,0.00,,CLR,0.00,VWS V14.01,2013-02-02 06:44:00,
2013-02-01 22:49:00,37.4,35.3,30.39,NNW,338,0.0,0.0,92,0.00,,CLR,0.00,VWS V14.01,2013-02-02 06:49:00,
2013-02-01 22:54:00,37.4,35.3,30.39,NNW,338,0.0,0.0,92,0.00,,CLR,0.00,VWS V14.01,2013-02-02 06:54:00,
2013-02-01 22:59:00,37.2,35.1,30.40,NNW,338,0.0,0.0,92,0.00,,CLR,0.00,VWS V14.01,2013-02-02 06:59:00,
2013-02-01 23:04:00,37.2,35.1,30.39,NNW,338,0.0,0.0,92,0.00,,CLR,0.00,VWS V14.01,2013-02-02 07:04:00,
2013-02-01 23:09:00,37.2,35.1,30.40,NNW,338,0.0,0.0,92,0.00,,CLR,0.00,VWS V14.01,2013-02-02 07:09:00,
2013-02-01 23:14:00,37.2,35.1,30.39,NNW,338,0.0,0.0,92,0.00,,CLR,0.00,VWS V14.01,2013-02-02 07:14:00,
2013-02-01 23:19:00,37.0,34.9,30.40,NNW,338,0.0,0.0,92,0.00,,CLR,0.00,VWS V14.01,2013-02-02 07:19:00,
2013-02-01 23:25:00,37.0,34.9,30.39,NNW,338,0.0,0.0,92,0.00,,CLR,0.00,VWS V14.01,2013-02-02 07:25:00,
2013-02-01 23:30:00,37.0,34.9,30.39,NNW,338,0.0,0.0,92,0.00,,CLR,0.00,VWS V14.01,2013-02-02 07:30:00,
2013-02-01 23:35:00,37.0,34.9,30.39,NNW,338,0.0,0.0,92,0.00,,CLR,0.00,VWS V14.01,2013-02-02 07:35:00,
2013-02-01 23:40:00,36.8,34.7,30.40,NNW,338,0.0,0.0,92,0.00,,CLR,0.00,VWS V14.01,2013-02-02 07:40:00,
2013-02-01 23:45:00,36.8,34.7,30.40,NNW,338,0.0,0.0,92,0.00,,CLR,0.00,VWS V14.01,2013-02-02 07:45:00,
2013-02-01 23:50:00,36.8,34.7,30.40,NNW,338,0.0,0.0,92,0.00,,CLR,0.00,VWS V14.01,2013-02-02 07:50:00,
2013-02-01 23:55:00,36.8,34.7,30.40,NNW,338,0.0,0.0,92,0.00,,CLR,0.00,VWS V14.01,2013-02-02 07:55:00,